Location: Mound City (historical)
(34.0564°N, 117.2656°W)
Time: 01:49:49
(UTC+00:00)

NOSS 3-2 (A) - Pass Details

Date: 08 September 2024
Orbit: 700 x 1505 km, 63.4° (Epoch: 29 September)

Event Time Altitude Azimuth Distance (km) Brightness Sun altitude
Exits shadow 12:35:08 12° 227° (SW) 2,071 4.7 -11.6°
Maximum altitude 12:39:39 55° 304° (NW) 921 3.2 -10.7°
Drops below altitude 10° 12:45:13 10° 23° (NNE) 2,518 6.2 -9.5°
Sets 12:47:59 0° 27° (NNE) 3,578 7.1 -9.0°
